This demonstration page uses our WeatherBlox Daily Observations layout. Learn more.

Left ArrowRight Arrow

39.29038, -76.61219

Hourly Observations for November 27, 2020

Temp ( °F °C ) Dew Point ( °F °C ) Humidity (%) Winds ( mph kmh ) Pressure ( in mb ) Visibility ( mi km ) Precip ( " mm )
12:54 am 00:54 Mostly Cloudy 51 10.6 44 6.7 77 77 W 3 6 30.09 1019 10 16 0.00 0.00
1:54 am 01:54 Mostly Cloudy 50 10 44 6.7 80 80 W 3 6 30.08 1019 10 16 0.00 0.00
2:54 am 02:54 Cloudy 52 11.1 45 7.2 77 77 Calm 30.08 1019 10 16 0.00 0.00
3:54 am 03:54 Cloudy 54 12.2 44 6.7 69 69 NW 3 6 30.07 1018 10 16 0.00 0.00
4:54 am 04:54 Cloudy 53 11.7 45 7.2 74 74 Calm 30.07 1018 10 16 0.00 0.00
5:54 am 05:54 Mostly Cloudy 54 12.2 44 6.7 69 69 Calm 30.07 1018 10 16 0.00 0.00
6:54 am 06:54 Mostly Cloudy 53 11.7 45 7.2 74 74 Calm 30.09 1019 10 16 0.00 0.00
7:54 am 07:54 Mostly Cloudy 53 11.7 47 8.3 80 80 Calm 30.10 1019 10 16 0.00 0.00
8:54 am 08:54 Mostly Cloudy 55 12.8 46 7.8 72 72 Calm 30.12 1020 10 16 0.00 0.00
9:54 am 09:54 Cloudy 56 13.3 45 7.2 67 67 Calm 30.11 1020 10 16 0.00 0.00
10:54 am 10:54 Cloudy 59 15 46 7.8 62 62 E 5 7 30.08 1019 10 16 0.00 0.00
11:54 am 11:54 Cloudy 59 15 45 7.2 60 60 Calm 30.06 1018 10 16 0.00 0.00
12:54 pm 12:54 Mostly Cloudy 59 15 45 7.2 60 60 Calm 30.05 1018 10 16 0.00 0.00
1:54 pm 13:54 Cloudy 59 15 45 7.2 60 60 Calm 30.03 1017 10 16 0.00 0.00
2:54 pm 14:54 Cloudy 60 15.6 45 7.2 58 58 Calm 30.02 1017 10 16 0.00 0.00
3:54 pm 15:54 Mostly Cloudy 59 15 45 7.2 60 60 NNW 3 6 30.00 1016 10 16 0.00 0.00
4:54 pm 16:54 Mostly Cloudy 58 14.4 44 6.7 60 60 Calm 30.00 1016 10 16 0.00 0.00
5:54 pm 17:54 Mostly Cloudy 56 13.3 45 7.2 67 67 Calm 30.01 1016 10 16 0.00 0.00
6:54 pm 18:54 Cloudy 54 12.2 46 7.8 75 75 Calm 30.02 1017 10 16 0.00 0.00
7:54 pm 19:54 Cloudy 54 12.2 45 7.2 72 72 Calm 30.01 1016 10 16 0.00 0.00
8:54 pm 20:54 Cloudy 54 12.2 44 6.7 69 69 NE 3 6 30.01 1016 10 16 0.00 0.00
9:54 pm 21:54 Mostly Cloudy 52 11.1 45 7.2 77 77 Calm 30.00 1016 10 16 0.00 0.00
10:54 pm 22:54 Mostly Cloudy 51 10.6 45 7.2 80 80 Calm 29.99 1016 10 16 0.00 0.00
11:54 pm 23:54 Mostly Cloudy 50 10 45 7.2 83 83 Calm 30.00 1016 10 16 0.00 0.00

Powered by AerisWeather